User: anonymous   Login
Location: Unspecified
(0.0000°N, 0.0000°E)
Time: 20:42:09
(UTC+00:00)
Language:

Skynet 4D - Orbit

View from above orbital plane
View from above orbital plane
View from above satellite
View from above satellite

Ground track
Ground track

The orbit data is extracted from the following two-line orbital elements,

1 25134U 98002A   17172.39976772 -.00000233 +00000-0 +00000-0 0  9991
2 25134 010.5326 031.3213 0003439 094.8975 097.3579 00.99157075070884
Epoch (UTC): 21 June 2017 09:35:39
Eccentricity: 0.0003439
inclination: 10.5326°
perigee height: 36087 km
apogee height: 36116 km
right ascension of ascending node: 31.3213°
argument of perigee: 94.8975°
revolutions per day: 0.99157075
mean anomaly at epoch: 97.3579°
orbit number at epoch: 7088

The dashed part of the orbit path shows where the satellite is in the earth's shadow,  

DLR